Terug naar catalogus

FENGYUN 1C DEB

ActiefSSO
NORAD 29950·DEBRIS·🇨🇳 China

Gelanceerd May 10, 1999 vanaf Taiyuan Satellite Launch Center

Loading…

Volgende Passages (komende 24 uur)

TLE

VersSource: Space-Track

Epoch: Sep 14, 2026, 08:33 UTC

1 29950U 99025JY  26257.35668037  .00000046  00000-0  49457-4 0  9993
2 29950  98.7134 285.3291 0033194 179.8629 248.0550 14.10440149 11768

Volg FENGYUN 1C DEB in realtime met AllMySat

Download on the App Store